Location: Unspecified
(47.9110°N, 14.3980°E)
Time: 05:15:33
(UTC+00:00)

Cosmos 1437 Rocket - Visible Passes

Search period start: 26 November 2020 00:00
Search period end: 06 December 2020 00:00
Orbit: 504 x 563 km, 81.2° (Epoch: 25 November)

Date Brightness Start Highest point End Pass type
(mag) Time Alt. Az. Time Alt. Az. Time Alt. Az.
26 Nov 3.6 05:05:34 10° N 05:09:17 48° ENE 05:12:56 10° SSE visible
27 Nov 3.7 04:56:13 10° N 04:59:55 47° ENE 05:03:34 10° SSE visible
28 Nov 3.7 04:46:52 10° N 04:50:33 46° ENE 04:54:11 10° SSE visible
29 Nov 3.7 04:37:30 10° N 04:41:11 45° ENE 04:44:48 10° SSE visible
30 Nov 3.8 04:28:09 10° N 04:31:49 44° ENE 04:35:25 10° SSE visible
01 Dec 3.8 04:19:21 13° N 04:22:27 43° ENE 04:26:03 10° SSE visible
01 Dec 4.4 05:56:05 10° NW 05:58:18 15° W 06:00:32 10° SW visible
02 Dec 3.8 04:10:49 20° NNE 04:13:04 42° ENE 04:16:40 10° SSE visible
02 Dec 4.4 05:46:40 10° NW 05:48:57 15° W 05:51:13 10° SW visible
02 Dec 5.3 18:06:09 10° SSW 18:06:54 15° SSW 18:06:54 15° SSW visible
03 Dec 3.9 04:02:21 29° NNE 04:03:42 41° ENE 04:07:17 10° SE visible
03 Dec 4.3 05:37:47 12° WNW 05:39:36 16° W 05:41:55 10° SW visible
03 Dec 4.6 17:56:48 10° SSW 17:58:37 26° SSW 17:58:37 26° SSW visible
04 Dec 3.9 03:53:58 39° ENE 03:54:19 40° ENE 03:57:54 10° SE visible
04 Dec 4.3 05:29:25 15° WNW 05:30:14 16° W 05:32:36 10° SW visible
04 Dec 4.8 16:14:19 10° ESE 16:14:50 11° E 16:14:50 11° E visible
04 Dec 3.7 17:47:26 10° SSW 17:50:17 43° SW 17:50:17 43° SW visible
05 Dec 4.2 03:45:39 36° ESE 03:45:39 36° ESE 03:48:31 10° SE visible
05 Dec 4.3 05:21:05 16° W 05:21:05 16° W 05:23:17 10° SW visible
05 Dec 4.7 16:05:06 10° ESE 16:06:16 11° E 16:06:26 11° E visible
05 Dec 3.0 17:38:04 10° SSW 17:41:52 65° W 17:41:52 65° W visible
